Regional Weather Roundup
Issued by NWS

Home | Current Version | Previous Version | Graphics & Text | Print | Product List | Glossary On
Versions: 1 2 3 4 5 6 7 8 9 10 11 12 13 14 15 16 17 18 19 20 21 22 23 24 25 26 27 28 29 30 31 32 33 34 35 36 37 38 39 40 41 42 43 44 45 46 47
000
ASUS45 KBOI 030210
RWRID

IDAHO REGIONAL WEATHER ROUNDUP
NATIONAL WEATHER SERVICE BOISE ID
800 PM MDT WED SEP 02 2015

NOTE: "FAIR" INDICATES FEW OR NO CLOUDS BELOW 12000 FEET
WITH NO SIGNIFICANT WEATHER AND/OR OBSTRUCTIONS TO VISIBILITY

IDZ012-014-030300-
SOUTHWEST IDAHO


CITY           SKY/WX    TMP DP  RH WIND       PRES   REMARKS
BOISE          MOCLDY    78  39  24 NW12      29.72S
CALDWELL       MOCLDY    77  41  27 NW6       29.73F
MOUNTAIN HOME  CLEAR     85  36  17 NW20G26   29.69F
$$

IDZ016-017-030300-
SOUTHCENTRAL IDAHO


CITY           SKY/WX    TMP DP  RH WIND       PRES   REMARKS
BURLEY         PTCLDY    75  40  28 E5        29.78F
JEROME         CLEAR     73  43  33 CALM      29.77F
TWIN FALLS     CLEAR     78  38  23 E6        29.78F
$$

IDZ019>023-030300-
SOUTHEAST IDAHO


CITY           SKY/WX    TMP DP  RH WIND       PRES   REMARKS
IDAHO FALLS    CLEAR     78  38  23 S3        29.84F
POCATELLO      PTCLDY    74  35  24 S9        29.83S
REXBURG        CLEAR     77  38  24 SW3       29.85S
$$

IDZ006-010-011-018-031-032-030300-
CENTRAL IDAHO MOUNTAINS


CITY           SKY/WX    TMP DP  RH WIND       PRES   REMARKS
MCCALL         CLOUDY    66  34  30 VRB5      29.85F
HAILEY         PTCLDY    72  32  23 S7        29.88F
STANLEY          N/A     68  29  23 SW6       29.94S
SALMON         PTCLDY    75  28  17 CALM      29.74R
CHALLIS        PTCLDY    76  26  15 SW8       29.81S
$$

IDZ002-004-006-007-026-030300-
NORTHERN IDAHO


CITY           SKY/WX    TMP DP  RH WIND       PRES   REMARKS
LEWISTON       CLOUDY    67  42  40 E3        29.86S
LOWELL           N/A     68  46  45 CALM      29.86S
COEUR D`ALENE  MOCLDY    63  45  51 S12G20    29.84S
MULLAN PASS    CLOUDY    42  35  76 SW6       29.96S
$$



USA.gov is the U.S. government's official web portal to all federal, state and local government web resources and services.